Regional Weather Roundup
Issued by NWS Jackson, KY

Home | Current Version | Previous Version | Graphics & Text | Print | Product List | Glossary On
Versions: 1 2 3 4 5 6 7 8 9 10 11 12 13 14 15 16 17 18 19 20 21 22 23 24 25 26 27 28 29 30 31 32 33 34 35 36 37 38 39 40 41 42 43 44 45 46 47 48
000
ASUS43 KJKL 010810
RWRJKL

EAST KENTUCKY HOURLY WEATHER ROUNDUP
NATIONAL WEATHER SERVICE JACKSON KY
400 AM EDT SAT AUG 01 2015

NOTE: "FAIR" INDICATES FEW OR NO CLOUDS BELOW 12,000 FEET WITH
NO SIGNIFICANT WEATHER AND/OR OBSTRUCTIONS TO VISIBILITY.

* THESE REPORTS ARE NOT UNDER NWS QUALITY CONTROL AND MAY NOT
  REPORT WEATHER SUCH AS PRECIPITATION AND FOG.

KYZ079-080-083-085-087-088-110-112-115-119-120-010900
...EASTERN KENTUCKY...

CITY           SKY/WX    TMP DP  RH WIND       PRES   REMARKS
JACKSON        CLEAR     66  61  84 CALM      30.03S
LONDON         CLEAR     64  59  83 CALM      30.04F
SOMERSET*      CLEAR     61  61 100 CALM      30.05S
MONTICELLO*    CLEAR     61  61 100 CALM      30.07S
WILLIAMSBURG*  CLEAR     59  59 100 CALM      30.05F
MIDDLESBORO*   CLEAR     60  60  98 CALM      30.07S
HAZARD APT*    SUNNY     66  63  88 SW3       30.03S
BLACK MTN*       N/A     61  57  88 SE1         N/A
PIKEVILLE APT* CLEAR     66  61  82 CALM      30.02F
BIG SANDY*     SUNNY     67  62  82 SW5       30.01F
MOREHEAD APT*  SUNNY     68  59  73 W5        30.02S
$$

KYZ035-036-041-042-044-050-067-078-099-010900
...CENTRAL KENTUCKY...

CITY           SKY/WX    TMP DP  RH WIND       PRES   REMARKS
MT STERLING*   CLEAR     64  61  88 W5        30.02F
FLEMING/MASON* CLEAR     64  61  88 W6        30.00F
DANVILLE*      CLEAR     73  61  64 NW9       30.03F
RICHMOND*      CLEAR     68  59  73 W3        30.02S
LEXINGTON      CLEAR     68  61  78 CALM      30.01F
FRANKFORT      CLEAR     65  61  87 CALM      29.99F
$$

KYZ091>093-OHZ055-061-077-WVZ005-015-034-035-042-010900
...SOUTHERN OHIO/WEST VIRGINIA...

CITY           SKY/WX    TMP DP  RH WIND       PRES   REMARKS
COVINGTON      CLEAR     67  60  78 W3        29.99F
COLUMBUS       CLEAR     67  62  84 CALM      29.94S
DAYTON         CLEAR     64  59  83 W6        29.99S
WILMINGTON     CLEAR     68  58  70 NW6       29.98S
HUNTINGTON     CLEAR     67  62  84 SW7       29.97S
CHARLESTON     CLOUDY    67  64  90 NW3       29.96F
PINEVILLE*     CLEAR     59  59 100 MISG      30.09S
BECKLEY        CLEAR     62  56  80 SW5       30.05F
BLUEFIELD      CLEAR     63  55  75 SW6       30.09F
$$

VAZ002-007-008-TNZ017-027-036-066-071-010900
...SOUTHWEST VIRGINIA/EAST TENNESSEE...

CITY           SKY/WX    TMP DP  RH WIND       PRES   REMARKS
WISE*          CLEAR     63  55  77 CALM      30.10F
ABINGDON*      CLEAR     60  57  90 CALM      30.07S
BRISTOL        CLEAR     59  58  96 CALM      30.05F
KNOXVILLE      CLEAR     64  62  93 E3        30.02F
OAK RIDGE      CLEAR     65  62  90 CALM      30.04F
CROSSVILLE     CLEAR     62  58  86 CALM      30.08F
NASHVILLE      CLEAR     68  65  90 CALM      30.03S
$$

...KEY TO REMARKS...
VSB - VISIBILITY IN MILES
WCI - WIND CHILL INDEX
HX  - HEAT INDEX

$$


USA.gov is the U.S. government's official web portal to all federal, state and local government web resources and services.